TimeEDT,TemperatureF,Dew PointF,Humidity,Sea Level PressureIn,VisibilityMPH,Wind Direction,Wind SpeedMPH,Gust SpeedMPH,PrecipitationIn,Events,Conditions,WindDirDegrees,DateUTC
12:53 AM,77.0,72.0,84,30.05,10.0,Calm,Calm,-,N/A,,Partly Cloudy,0,2013-09-17 04:53:00
1:53 AM,77.0,72.0,84,30.04,10.0,Calm,Calm,-,N/A,,Clear,0,2013-09-17 05:53:00
2:53 AM,75.9,71.1,85,30.02,10.0,NNW,5.8,18.4,N/A,,Clear,330,2013-09-17 06:53:00
3:53 AM,73.9,71.1,91,30.03,10.0,SSE,3.5,-,N/A,,Clear,160,2013-09-17 07:53:00
4:53 AM,73.0,70.0,90,30.03,10.0,Calm,Calm,-,N/A,,Clear,0,2013-09-17 08:53:00
5:53 AM,73.0,70.0,90,30.03,10.0,Calm,Calm,-,N/A,,Clear,0,2013-09-17 09:53:00
6:53 AM,73.0,69.1,87,30.04,10.0,Calm,Calm,-,N/A,,Clear,0,2013-09-17 10:53:00
7:53 AM,73.9,70.0,87,30.06,10.0,Calm,Calm,-,N/A,,Clear,0,2013-09-17 11:53:00
8:53 AM,77.0,72.0,84,30.08,10.0,East,4.6,-,N/A,,Clear,90,2013-09-17 12:53:00
9:53 AM,82.0,72.0,71,30.09,10.0,East,4.6,-,N/A,,Clear,100,2013-09-17 13:53:00
10:53 AM,86.0,71.1,61,30.09,10.0,ESE,4.6,-,N/A,,Clear,110,2013-09-17 14:53:00
11:53 AM,89.1,70.0,53,30.09,10.0,ENE,6.9,-,N/A,,Partly Cloudy,60,2013-09-17 15:53:00
12:53 PM,90.0,68.0,48,30.08,10.0,ENE,9.2,-,N/A,,Mostly Cloudy,70,2013-09-17 16:53:00
1:53 PM,91.0,66.9,45,30.06,10.0,ENE,9.2,-,N/A,,Mostly Cloudy,70,2013-09-17 17:53:00
2:53 PM,91.0,66.9,45,30.03,10.0,East,12.7,-,N/A,,Mostly Cloudy,80,2013-09-17 18:53:00
3:53 PM,93.0,66.9,42,30.00,10.0,ENE,11.5,17.3,N/A,,Mostly Cloudy,70,2013-09-17 19:53:00
4:53 PM,93.0,66.0,41,29.99,10.0,Variable,6.9,-,N/A,,Mostly Cloudy,0,2013-09-17 20:53:00
5:53 PM,93.0,64.9,39,29.99,10.0,NE,8.1,-,N/A,,Partly Cloudy,50,2013-09-17 21:53:00
6:53 PM,84.9,69.1,59,30.00,10.0,NNE,5.8,-,0.00,Rain,Light Rain,30,2013-09-17 22:53:00
7:53 PM,82.0,68.0,62,30.02,10.0,ESE,4.6,-,0.00,,Mostly Cloudy,110,2013-09-17 23:53:00
8:53 PM,79.0,73.0,82,30.04,8.0,Variable,5.8,-,0.03,Rain,Light Rain,0,2013-09-18 00:53:00
9:53 PM,79.0,71.1,77,30.06,10.0,East,11.5,-,0.00,,Scattered Clouds,90,2013-09-18 01:53:00
10:53 PM,79.0,69.1,72,30.08,10.0,East,11.5,-,N/A,,Partly Cloudy,80,2013-09-18 02:53:00
11:53 PM,78.1,69.1,74,30.09,10.0,East,10.4,18.4,N/A,,Clear,80,2013-09-18 03:53:00